sat.trackr.live / text

‹ back to catalog

ANGOSAT 2

NORAD 54033 · 2022-131A

PAYLOAD ACTIVE UNKNOWN

§ Identity

Operator
Country
ANG
Launch date
2022-10-12
Launch site
TYMSC
Launch vehicle
Mass (kg)
RCS (m²)

Purposes: comms

External: N2YO · Heavens-Above · Gunter

§ Orbital elements

Epoch: 2026-09-18T18:50:34.445760Z

Period
1,436.11 min
Inclination
0.0029°
Eccentricity
0.0001192
Mean motion
1.00270934 rev/d
Perigee alt
35,781.8 km
Apogee alt
35,791.9 km
Semi-major
42,165.0 km
B*
0.0000e+0
RAAN
64.1863°
Arg perigee
193.5049°
Mean anomaly
45.6659°
Rev number
1,441

§ Raw data

ANGOSAT 21 54033U 22131A   26261.78512090  .00000131  00000+0  00000+0 0  99962 54033   0.0029  64.1863 0001192 193.5049  45.6659  1.00270934 14411

JSON: /api/v1/satellites/54033 · /tle

For live sub-satellite position, see the globe view (requires WebGL).

§ Visibility from observer

Set your observer location to see the next 7 days of passes ≥ 10°. The values pass through the URL so the page stays shareable.

No JS? Fill the form by hand. The geolocation button needs JavaScript.